Regional Weather Roundup
Issued by NWS

Home | Current Version | Previous Version | Graphics & Text | Print | Product List | Glossary On
Versions: 1 2 3 4 5 6 7 8 9 10 11 12 13 14 15 16 17 18 19 20 21 22 23 24 25 26 27 28 29 30 31 32 33 34 35 36 37 38 39 40 41 42 43 44 45 46 47 48 49 50
000
ASUS45 KCYS 070710
RWRWY

WYOMING REGIONAL WEATHER ROUNDUP
NATIONAL WEATHER SERVICE CHEYENNE WY
100 AM MDT TUE JUL 07 2015

NOTE:  "FAIR" INDICATES FEW OR NO CLOUDS BELOW 12,000 FEET
WITH NO SIGNIFICANT WEATHER AND/OR OBSTRUCTIONS TO VISIBILITY.

WYZ001-070800-
YELLOWSTONE NATIONAL PARK

CITY           SKY/WX    TMP DP  RH WIND       PRES   REMARKS
LK YELLOWSTONE   N/A     51  49  92 CALM      30.34R
W YELLOWSTONE  NOT AVBL

$$
WYZ002>013-054>058-071-098>099-070800-
NORTHERN WYOMING

CITY           SKY/WX    TMP DP  RH WIND       PRES   REMARKS
JACKSON        FAIR      54  52  94 N3        30.24F
CODY           FAIR      59  52  77 CALM      30.16F
GREYBULL       FAIR      64  50  60 CALM      30.11F
WORLAND        FAIR      61  53  75 E8        30.12F
SHERIDAN       FAIR      52  50  93 CALM      30.15F
BUFFALO        FAIR      54  52  93 SE5       30.20S
GILLETTE       FAIR      50  48  93 CALM      30.19F
HULETT         PTSUNNY   59  52  77 SE5       30.21F
NEWCASTLE      PTSUNNY   59  50  72 SE9       30.24S

$$
WYZ014>020-022>026-101>103-070800-
CENTRAL WYOMING

CITY           SKY/WX    TMP DP  RH WIND       PRES   REMARKS
BIG PINEY      CLOUDY    55  52  89 E6        30.30S
PINEDALE       RAIN      54  52  94 N7        30.32S
DUBOIS         FAIR      52  48  87 S6        30.30F
LANDER         CLOUDY    57  50  77 W7        30.20F
RIVERTON       CLOUDY    61  56  83 CALM      30.21S
CASPER         FAIR      54  51  90 CALM      30.21F
DOUGLAS        FAIR      54  52  93 E10       30.23F FOG

$$
WYZ021-027>030-104>119-070800-
SOUTHERN WYOMING

CITY           SKY/WX    TMP DP  RH WIND       PRES   REMARKS
EVANSTON       FAIR      56  48  74 E8        30.26S
KEMMERER       FAIR      52  48  87 N6        30.30S
FORT BRIDGER   SUNNY     54  54 100 N5        30.29F
ROCK SPRINGS   FAIR      55  51  86 CALM      30.25F
DIXON          FAIR      58  56  92 E6        30.26F
RAWLINS        CLOUDY    56  52  86 E6        30.27S
SARATOGA       CLOUDY    55  54  94 NW3       30.27F
LARAMIE        CLOUDY    53  50  89 SE14      30.31S
CHEYENNE       CLOUDY    54  53  97 SE12      30.31F FOG
TORRINGTON     CLOUDY    62  57  83 SE6       30.22F HAZE
PINE BLUFFS    CLOUDY    55  54  94 SE7       30.30S FOG

$$


USA.gov is the U.S. government's official web portal to all federal, state and local government web resources and services.